This is the latest recevied weather packets stored in our database for station/object MB7UKY-10. If no packets are shown the sender has not sent any weather packets the latest 10 day(s).
| Time | Temp. | Humidity | Pressure | Rain* | Wind** | Luminosity | Snow |
|---|---|---|---|---|---|---|---|
| 1778027318 | 15.56° C | 50% | 1008.7 hPa | - | - | - | - |
| 1778026416 | 16.11° C | 49% | 1008.8 hPa | - | - | - | - |
| 1778025516 | 16.11° C | 49% | 1009 hPa | - | - | - | - |
| 1778024615 | 16.11° C | 49% | 1009 hPa | - | - | - | - |
| 1778023714 | 16.67° C | 49% | 1009.1 hPa | - | - | - | - |
| 1778022813 | 17.22° C | 48% | 1009.2 hPa | - | - | - | - |
| 1778021913 | 17.22° C | 48% | 1009.3 hPa | - | - | - | - |
| 1778021012 | 17.22° C | 48% | 1009.4 hPa | - | - | - | - |
| 1778020111 | 17.22° C | 48% | 1009.5 hPa | - | - | - | - |
| 1778019211 | 17.22° C | 48% | 1009.4 hPa | - | - | - | - |
| 1778018310 | 17.78° C | 48% | 1009.5 hPa | - | - | - | - |
| 1778017409 | 17.78° C | 48% | 1009.5 hPa | - | - | - | - |
| 1778016508 | 17.22° C | 49% | 1009.4 hPa | - | - | - | - |
| 1778015608 | 17.22° C | 49% | 1009.5 hPa | - | - | - | - |
| 1778014707 | 17.78° C | 49% | 1009.5 hPa | - | - | - | - |
| 1778013806 | 17.78° C | 49% | 1009.3 hPa | - | - | - | - |
| 1778012905 | 17.78° C | 49% | 1009.4 hPa | - | - | - | - |
| 1778012005 | 18.33° C | 49% | 1009.2 hPa | - | - | - | - |
| 1778011104 | 18.33° C | 49% | 1009.3 hPa | - | - | - | - |
| 1778010203 | 18.89° C | 49% | 1009 hPa | - | - | - | - |
| 1778009302 | 18.89° C | 49% | 1008.9 hPa | - | - | - | - |
| 1778008402 | 18.89° C | 48% | 1008.8 hPa | - | - | - | - |
| 1778007501 | 19.44° C | 48% | 1008.7 hPa | - | - | - | - |
| 1778006600 | 19.44° C | 48% | 1008.4 hPa | - | - | - | - |
| 1778005699 | 20° C | 48% | 1008.5 hPa | - | - | - | - |
* Rain since midnight (hover to see other rain measurements)
** Current wind speed in m/s (hover to see current wind gust speed)